Location: Casa Fronte
(44.8853°N, 12.1461°E)
Time: 07:55:51
(UTC+00:00)

Daily predictions for brighter satellites

Satellite Brightness Start Highest point End
(mag) Time Altitude Azimuth Time Altitude Azimuth Time Altitude Azimuth
Cosmos 1634 Rocket 4.0 16:26:20 10° N 16:32:36 74° E 16:38:52 10° SSE
CZ-2C R/B 4.0 16:29:47 10° ESE 16:34:17 29° ENE 16:38:59 10° N
H-2A R/B 2.5 16:32:06 10° SSE 16:36:06 84° WSW 16:40:17 10° NNW
Okean-O 4.1 16:33:36 10° E 16:36:19 16° ENE 16:39:02 10° NNE
H-2A R/B 3.3 16:34:08 10° E 16:37:23 18° ENE 16:40:42 10° NNE
Okean O Rocket 1.6 16:34:32 10° SSE 16:38:57 70° ENE 16:43:22 10° N
CZ-4B R/B 2.5 16:37:22 10° NE 16:40:15 26° E 16:43:05 10° SSE
YAOGAN 6 4.2 16:37:33 10° SSW 16:40:53 39° W 16:44:16 10° NNW
SMAP 3.2 16:36:17 10° SSE 16:40:57 84° WSW 16:45:38 10° NNW
Cosmos 1626 2.4 16:38:07 10° SSW 16:41:48 71° W 16:45:30 10° N
SeaSat 1 4.4 16:38:04 10° N 16:41:55 23° NW 16:45:46 10° W
Cosmos 773 Rocket 4.0 16:37:17 10° NNW 16:42:24 59° ENE 16:47:26 10° SE
CZ-4B R/B 3.3 16:37:25 10° SSE 16:42:57 88° ENE 16:48:37 10° NNW
SL-24 R/B 4.2 16:39:14 10° SSE 16:43:33 87° ENE 16:48:10 10° NNW
Aureole 2 Rocket 3.9 16:44:39 10° SE 16:46:28 15° E 16:48:02 11° ENE
AQUARIUS 4.3 16:43:24 10° SSE 16:47:53 82° WSW 16:52:25 10° NNW
Cosmos 1603 4.1 16:45:50 10° NNW 16:51:32 72° WSW 16:57:14 10° SSE
Meteor 2-10 Rocket 4.0 16:46:57 10° N 16:52:10 40° ENE 16:57:09 10° SE
CZ-2D R/B 3.8 16:52:11 10° SE 16:55:44 37° ENE 16:59:19 10° N
Cosmos 1606 Rocket 3.5 16:53:02 10° N 16:57:25 77° E 17:01:50 10° SSE
YAOGAN 1 3.6 16:55:03 10° ESE 16:58:28 24° ENE 17:01:56 10° NNE
USA 234 4.3 16:52:59 10° ENE 16:58:29 31° N 17:04:04 10° NW
Cosmos 1892 Rocket 3.8 16:54:37 10° SSE 16:58:48 48° E 17:02:59 10° NNE
H-2A R/B 2.4 16:54:22 10° N 16:58:50 72° WNW 17:03:09 10° SSW
TELKOM 3 3.9 16:57:25 10° SW 16:59:35 35° SE 17:01:04 18° E
FengYun 1-2 T 4.4 16:54:58 10° SSE 17:00:31 81° WSW 17:06:10 10° NNW
ATLAS 5 CENTAUR R/B 2.3 16:57:11 10° WSW 17:01:05 48° NW 17:05:29 10° NNE
SL-14 R/B 4.1 17:00:33 10° SSW 17:04:19 52° WNW 17:08:09 10° N
Helios 1A Rocket 4.1 17:01:13 10° ESE 17:04:21 21° ENE 17:07:30 10° NNE
RESURS DK-1 4.2 17:02:46 10° WSW 17:06:24 29° NW 17:10:02 10° N
MOS 1 Rocket 3.5 17:04:11 10° NNE 17:08:16 40° E 17:12:17 10° SSE
Cosmos 2228 3.3 17:05:08 10° NNW 17:09:23 71° W 17:13:39 10° S
ATLAS 3B R/B 4.0 17:02:51 10° NW 17:09:29 47° WSW 17:16:20 10° S
BREEZE-M DEB (TANK) 4.3 17:08:42 10° W 17:11:02 22° SSW 17:13:50 10° SSE
Meteor 2-5 Rocket 4.3 17:07:44 10° SSW 17:13:13 59° WNW 17:18:42 10° N
SKYMED 2 3.5 17:09:54 10° NNE 17:14:14 64° E 17:18:32 10° S
Cosmos 2180 Rocket 4.5 17:08:26 10° N 17:14:51 76° E 17:21:15 10° SSE
CZ-4C R/B 3.8 17:10:40 10° W 17:15:06 26° NNW 17:20:16 10° NNE
Cosmos 1538 Rocket 3.9 17:10:57 10° NNW 17:16:07 66° ENE 17:21:14 10° SSE
SJ 16-02 2.0 17:12:11 10° SSE 17:16:09 34° ESE 17:18:57 17° NE
Aureole 3 3.8 17:13:12 10° NNE 17:16:13 26° ENE 17:18:54 10° SE
Nadezhda 4 Rocket 4.2 17:11:26 10° SSE 17:17:24 50° E 17:23:22 10° NNE
CZ-3B R/B 2.7 17:15:18 10° NNW 17:17:38 30° NE 17:20:09 19° E
Cosmos 1777 Rocket 4.0 17:14:10 10° SSW 17:19:26 89° ESE 17:24:45 10° NNE
Cosmos 2263 Rocket 3.3 17:16:15 10° SW 17:21:37 42° WNW 17:27:01 10° NNE
Cosmos 1455 2.5 17:23:16 10° N 17:26:54 41° ENE 17:30:31 10° SSE
Cosmos 2058 Rocket 3.0 17:24:22 10° N 17:28:53 81° E 17:33:24 10° S
Cosmos 1703 4.2 17:28:42 10° SSE 17:31:37 27° ESE 17:31:37 27° ESE
X-37B 1.6 17:29:35 10° SW 17:32:30 34° SSE 17:33:14 29° SE
Meteor 2-13 Rocket 4.4 17:29:50 10° S 17:35:51 65° E 17:41:56 10° NNE
ARGOS 3.5 17:31:45 10° SE 17:36:43 41° ENE 17:41:43 10° N
Cosmos 44 4.3 17:36:07 10° SSE 17:40:03 27° ESE 17:40:18 26° ESE
Okean 1-7 Rocket 3.6 17:35:46 10° S 17:40:18 88° E 17:44:54 10° N
CREW DRAGON DEMO-1 DEB 3.8 17:39:33 10° NW 17:41:52 31° N 17:41:52 31° N
Lacrosse 5 1.9 17:37:27 10° NW 17:42:29 62° NE 17:45:00 29° ESE
NOSS 3-1 (C) 4.4 17:36:01 10° NNW 17:42:53 42° NE 17:47:11 25° E
Cosmos 1939 Rocket 4.4 17:40:06 10° SSW 17:43:59 40° W 17:47:51 10° NNW
ISS -3.7 17:41:13 10° SW 17:44:32 63° SE 17:45:00 54° ESE
ERS-2 2.0 17:42:03 16° NNE 17:44:51 88° ESE 17:48:29 10° SSW
CZ-2C R/B 3.4 17:45:49 30° ENE 17:46:41 32° E 17:51:37 10° SSE
CSL-04 Debris 4.3 17:41:36 10° SE 17:46:47 50° ENE 17:51:59 10° N
PSLV R/B 3.8 17:43:31 13° NNE 17:47:15 75° ESE 17:51:28 10° S
EXPRESS MD2 4.1 17:40:20 10° WNW 17:48:10 78° SSW 17:50:21 28° SE
COSMOS 2455 3.1 17:42:57 10° SW 17:48:58 71° WNW 17:54:02 15° NNE
Cosmos 1626 Rocket 3.5 17:47:14 10° S 17:51:31 61° E 17:54:01 24° NNE
Cosmos 1844 3.6 17:48:10 10° SSW 17:53:46 68° ESE 17:57:10 25° NE
Cosmos 2026 Rocket 4.2 17:48:47 10° SSE 17:54:31 45° E 18:00:20 10° NNE
IRS-1C Rocket 4.5 17:49:27 10° S 17:54:40 66° WSW 17:59:55 10° NNW
Cosmos 990 Rocket 4.3 17:50:37 10° S 17:55:31 43° ESE 17:56:17 40° E
Cosmos 1833 Rocket 4.1 17:51:28 10° N 17:54:41 21° NNE 17:54:41 21° NNE
CZ-4 R/B 1.5 17:52:05 10° S 17:56:11 76° WSW 18:00:16 10° NNW
Cosmos 2082 Rocket 4.1 17:54:16 10° N 17:55:55 14° NNE 17:55:55 14° NNE
USA 229 DEB 4.4 17:53:04 10° NNW 17:59:47 39° NE 18:01:49 33° ENE
USA 229 4.4 17:53:10 10° NNW 17:59:52 39° NE 18:01:51 33° ENE
COSMO-SKYMED 1 3.9 17:58:11 10° N 18:02:16 40° WNW 18:06:19 10° SW
DMSP B5D1-3 4.4 18:01:31 17° NNE 18:05:31 74° ESE 18:10:37 10° S
USA 267 3.7 18:04:13 35° E 18:05:50 40° SE 18:11:53 10° SSW
CZ-4B R/B 4.1 18:09:50 10° NNW 18:12:17 19° WNW 18:14:42 10° WSW
Okean-O 3.1 18:07:57 10° S 18:12:19 59° WSW 18:16:44 10° NNW
CZ-2C R/B 4.3 18:08:55 10° SSW 18:13:54 43° W 18:19:12 10° NNW
NOSS 3-1 (A) 4.4 18:08:32 10° NNW 18:15:26 42° NE 18:16:57 39° ENE
Cosmos 1844 Rocket 2.9 18:10:11 10° SW 18:15:50 68° WNW 18:19:24 23° NNE
H-2A R/B 2.3 18:11:20 10° S 18:16:15 67° WSW 18:21:20 10° NNW
Cosmos 923 Rocket 4.0 18:12:27 10° NNW 18:17:50 83° WSW 18:23:08 10° SSE
Meteor 1-21 Rocket 4.3 18:12:38 10° SSW 18:18:09 73° WNW 18:23:43 10° N
Aureole 2 Rocket 4.1 18:16:38 10° WSW 18:19:13 25° WNW 18:19:28 25° NW
Cosmos 1689 Rocket 4.0 18:20:00 28° WSW 18:20:00 28° WSW 18:21:50 10° SW
Cosmos 2195 Rocket 4.4 18:13:45 10° S 18:20:04 83° E 18:26:27 10° N
Cosmos 158 Rocket 4.3 18:17:53 10° NNW 18:23:12 69° WSW 18:28:33 10° S
Meteor 2-8 Rocket 4.3 18:17:24 10° N 18:23:31 81° E 18:29:38 10° S
Cosmos 1898 Rocket 3.4 18:18:47 10° S 18:23:42 64° SE 18:23:42 64° SE
Meteor 2-15 4.4 18:18:08 10° N 18:24:12 58° ENE 18:24:42 56° E
Cosmos 2278 Rocket 4.3 18:20:04 10° SSE 18:20:26 12° SSE 18:20:26 12° SSE
Cosmos 1680 Rocket 3.3 18:19:58 10° NNW 18:25:14 87° ENE 18:26:36 51° SSE
Cosmos 1627 Rocket 4.3 18:23:47 10° S 18:29:57 87° E 18:36:14 10° N
Cosmos 2098 Rocket 4.2 18:24:14 10° S 18:31:12 72° E 18:38:38 10° NNE
Cosmos 1602 Rocket 3.7 18:27:19 10° SSW 18:31:34 68° W 18:31:34 68° W
Cosmos 1818 4.2 18:27:48 10° SW 18:33:06 54° NW 18:34:52 38° N
YAOGAN 1 4.1 18:30:25 10° SSW 18:34:23 35° W 18:38:23 10° NNW
Cosmos 1428 Rocket 4.4 18:28:40 10° S 18:34:57 88° E 18:41:18 10° N
CSL-04 Rocket 4.0 18:32:43 10° S 18:38:03 66° WSW 18:43:32 10° NNW
Helios 1A Rocket 4.4 18:35:26 10° SSW 18:39:16 37° W 18:43:09 10° NNW
USA 234 3.5 18:40:19 47° NNE 18:40:36 48° NNE 18:46:50 10° NW
Cosmos 1092 Rocket 4.4 18:39:03 10° SSW 18:45:10 60° WNW 18:51:16 10° N
ATLAS 5 CENTAUR R/B 4.1 18:44:56 10° NW 18:47:00 13° NNW 18:47:37 13° NNW
Iridium 4 Rocket 4.1 18:41:39 10° N 18:47:15 60° W 18:52:26 10° SSW
SJ 16-02 3.3 18:51:06 10° WSW 18:54:46 25° WNW 18:55:59 22° NW
Cosmos 2344 4.2 18:46:01 10° NW 18:55:23 76° NE 18:59:35 47° ESE
Lacrosse 5 3.8 19:20:55 10° WNW 19:24:15 26° WSW 19:24:15 26° WSW
CZ-2C R/B 3.9 19:27:19 39° WNW 19:27:19 39° WNW 19:32:10 10° SW
NOSS 3-1 (C) 4.3 19:26:43 10° NW 19:34:16 64° WSW 19:34:40 63° SW
USA 267 4.3 19:51:34 40° WSW 19:51:34 40° WSW 19:55:33 10° WSW
